Content
SEND FEEDBACK

Daily
Averages
Monthly
Summary
United States of America

INARAJAN, GUAM


Home > North America > United States > Guam
Elevation: 280 feet     Latitude: 13 18N     Longitude: 144 44E

WEATHER
 
SELECT A DAY
Number of Records: 351,895;   Date Range: 1/1/95 - 10/24/14
 
SHARE

PRINT THIS DATA

[ ← Previous Day ]
WEATHER ALMANAC - AUGUST 8, 2014
[ Next Day → ]
[ °C ]   °F
Weather ElementAverageHighLow
Temperature82.1 °F85.6 °F (12:58 pm)77 °F (9:25 am)
Dewpoint77 °F78.8 °F (8:53 am)73.4 °F (6:08 am)
Humidity84.5 %96 % (4:58 am)77 % (11:58 am)
Barometer29.80 in29.88 in (12:53 am)29.73 in (3:58 pm)
Wind Speed6.9 mph11.5 mph (3:33 am)
Weather ElementAverage
Visibility9.6 mi
Wind DirectionESE (124.6 °)

Weather ElementTotal
Precipitation0.04 in
Cooling Degree Days16.3 (Base 65)
Growing Degree Days31.3 (Base 50)
Averaged from 57 records on August 8, 2014
WEATHER CONDITIONS BREAKOUT
WIND DIRECTION BREAKOUT
WEATHER BY HOUR - AUGUST 8, 2014
[ °C ]   °F
Local TimeTemperatureDewpointHumidityBarometerVisibilityWind DirectionWind SpeedGust SpeedPrecipitationEventsConditions
12:58 AM79.2 °F76.5 °F91 %29.77 in10.0 miSouth (190°)2.3 mphClear
1:58 AM78.4 °F75.9 °F92 %29.75 in10.0 miSouth (170°)4.6 mphPartly Cloudy
2:58 AM78.6 °F76.1 °F92 %29.74 in10.0 miSSE (150°)2.3 mphClear
3:20 AM77.0 °F75.2 °F94 %29.77 in10.0 miSW (220°)1.2 mphRainLight Rain
3:33 AM78.8 °F77.0 °F94 %29.76 in10.0 miSouth (180°)1.2 mphMostly Cloudy
3:58 AM79.2 °F76.6 °F92 %29.73 in10.0 miCalm0.00 inPartly Cloudy
4:58 AM77.9 °F76.6 °F96 %29.74 in10.0 miWNW (290°)1.2 mphClear
5:58 AM78.1 °F76.6 °F95 %29.74 in10.0 miNNE (30°)1.2 mphPartly Cloudy
6:13 AM78.8 °F77.0 °F94 %29.78 in10.0 miENE (60°)3.5 mphMostly Cloudy
6:28 AM78.8 °F75.2 °F89 %29.79 in10.0 miENE (60°)3.5 mphScattered Clouds
6:58 AM79.3 °F76.3 °F90 %29.77 in10.0 miEast (90°)4.6 mphScattered Clouds
7:58 AM81.1 °F76.6 °F86 %29.79 in10.0 miENE (70°)5.8 mphClear
8:53 AM84.2 °F78.8 °F84 %29.83 in10.0 miENE (70°)9.2 mphMostly Cloudy
8:58 AM83.8 °F78.3 °F83 %29.81 in10.0 miEast (100°)8.1 mphMostly Cloudy
9:03 AM84.2 °F77.0 °F79 %29.83 in10.0 miEast (100°)6.9 mphScattered Clouds
9:13 AM80.6 °F73.4 °F79 %29.83 in10.0 miEast (90°)9.2 mphMostly Cloudy
9:18 AM80.6 °F75.2 °F84 %29.83 in10.0 miESE (110°)9.2 mphMostly Cloudy
9:23 AM82.4 °F77.0 °F84 %29.84 in10.0 miEast (100°)8.1 mphMostly Cloudy
9:58 AM84.4 °F77.7 °F80 %29.81 in10.0 miESE (110°)10.4 mphScattered Clouds
10:23 AM84.2 °F77.0 °F79 %29.83 in10.0 miSE (130°)10.4 mphMostly Cloudy
10:28 AM84.2 °F77.0 °F79 %29.84 in10.0 miESE (110°)10.4 mphScattered Clouds
10:58 AM84.4 °F78.4 °F82 %29.81 in10.0 miSE (130°)11.5 mphScattered Clouds
11:03 AM84.2 °F78.8 °F84 %29.84 in10.0 miESE (120°)11.5 mphMostly Cloudy
11:08 AM84.2 °F78.8 °F84 %29.84 in10.0 miESE (120°)11.5 mphScattered Clouds
11:48 AM84.2 °F77.0 °F79 %29.82 in10.0 miSE (130°)11.5 mphMostly Cloudy
11:58 AM84.2 °F77.0 °F79 %29.79 in10.0 miESE (120°)10.4 mphMostly Cloudy
12:58 PM85.6 °F77.7 °F77 %29.78 in10.0 miSE (140°)9.2 mphMostly Cloudy
1:03 PM84.2 °F77.0 °F79 %29.80 in10.0 miSE (130°)11.5 mphMostly Cloudy
1:08 PM84.2 °F77.0 °F79 %29.80 in10.0 miSSE (150°)10.4 mphMostly Cloudy
1:13 PM84.2 °F77.0 °F79 %29.80 in10.0 miSSE (150°)10.4 mphMostly Cloudy
1:33 PM84.2 °F77.0 °F79 %29.80 in10.0 miSE (130°)10.4 mphMostly Cloudy
1:43 PM84.2 °F77.0 °F79 %29.79 in10.0 miESE (120°)9.2 mphScattered Clouds
1:53 PM84.2 °F77.0 °F79 %29.79 in10.0 miSE (130°)10.4 mphMostly Cloudy
1:58 PM84.6 °F77.4 °F79 %29.76 in10.0 miSSE (150°)11.5 mphMostly Cloudy
1:59 PM84.2 °F78.8 °F84 %29.79 in6.0 miSE (140°)11.5 mphRainLight Rain
2:04 PM82.4 °F77.0 °F84 %29.79 in2.0 miSSE (150°)5.8 mphRainHeavy Rain
2:09 PM82.4 °F78.8 °F89 %29.79 in2.5 miSSE (150°)8.1 mphRainLight Rain
2:13 PM82.4 °F78.8 °F89 %29.79 in9.0 miSSE (150°)8.1 mphMostly Cloudy
2:38 PM84.2 °F77.0 °F79 %29.78 in10.0 miSSE (150°)10.4 mphMostly Cloudy
2:58 PM84.4 °F77.7 °F80 %29.75 in10.0 miSSE (150°)10.4 mph0.04 inMostly Cloudy
3:03 PM84.2 °F77.0 °F79 %29.78 in10.0 miSE (140°)8.1 mphMostly Cloudy
3:08 PM84.2 °F77.0 °F79 %29.78 in10.0 miSE (130°)8.1 mphScattered Clouds
3:13 PM84.2 °F77.0 °F79 %29.78 in10.0 miSSE (150°)9.2 mphMostly Cloudy
3:33 PM84.2 °F77.0 °F79 %29.78 in10.0 miSE (140°)9.2 mphScattered Clouds
3:58 PM83.8 °F77.2 °F80 %29.75 in10.0 miSSE (160°)8.1 mphScattered Clouds
4:58 PM83.3 °F76.3 °F79 %29.76 in10.0 miSE (140°)8.1 mphPartly Cloudy
5:58 PM82.6 °F76.5 °F82 %29.77 in10.0 miSSE (160°)8.1 mphClear
6:58 PM81.3 °F76.8 °F86 %29.78 in10.0 miSE (140°)6.9 mphPartly Cloudy
7:58 PM80.8 °F76.3 °F86 %29.81 in10.0 miSSE (160°)4.6 mphClear
8:58 PM80.6 °F76.5 °F87 %29.83 in10.0 miSouth (170°)4.6 mphClear
9:58 PM80.6 °F76.6 °F88 %29.86 in10.0 miSSE (160°)3.5 mphPartly Cloudy
10:08 PM80.6 °F77.0 °F89 %29.88 in10.0 miSE (130°)2.3 mphMostly Cloudy
10:13 PM80.6 °F77.0 °F89 %29.88 in10.0 miCalmLight Drizzle
10:23 PM80.6 °F77.0 °F89 %29.88 in10.0 miCalmMostly Cloudy
10:33 PM80.6 °F77.0 °F89 %29.88 in10.0 miSSE (160°)2.3 mphScattered Clouds
10:58 PM79.5 °F76.5 °F90 %29.86 in10.0 miCalm0.00 inClear
11:58 PM79.7 °F76.6 °F90 %29.83 in10.0 miESE (120°)3.5 mphPartly Cloudy
Hourly data recorded from PGUA, located miles away from Inarajan, Guam







STORIES FROM OUR PARTNERS